Weather Roundup
Issued by NWS

Home | Current Version | Previous Version | Graphics & Text | Print | Product List | Glossary Off
Versions: 1 2 3 4 5 6 7 8 9 10 11 12 13 14 15 16 17 18 19 20 21 22 23 24 25 26 27 28 29 30 31 32 33 34 35 36 37 38 39 40 41 42 43 44 45 46 47 48 49 50

000
NZUS93 KARX 191710
HRRWXR

CURRENT HOURLY OBSERVATIONS ACROSS
MUCH OF THE UPPER MISSISSIPPI VALLEY
NATIONAL WEATHER SERVICE LA CROSSE WI
1200 PM CDT TUE AUG 19 2014


...SOUTHEAST MINNESOTA...


CITY           SKY/WX    TMP DP  RH WIND       PRES   REMARKS
ROCHESTER      PTSUNNY   73  63  70 NW6       29.78F
ROCHESTER/MAYO CLOUDY    71  61  70 W9G17     29.77F
WINONA         CLOUDY    73  64  73 W6        29.74S
AUSTIN         MOSUNNY   73  64  73 NW12      29.78F
ALBERT LEA     MOSUNNY   73  63  68 NW5       29.79S
DODGE CENTER   PTSUNNY   72  64  78 NW10G16   29.78F
PRESTON        CLOUDY    72  67  85 NW9       29.78S
OWATONNA       MOSUNNY   73  64  73 W7        29.78F
FARIBAULT      MOSUNNY   75  61  60 NW8       29.78S
$$

...ELSEWHERE IN MINNESOTA...


CITY           SKY/WX    TMP DP  RH WIND       PRES   REMARKS
MINNEAPOLIS    PTSUNNY   75  61  61 NW10      29.76S
INTNL FALLS    CLOUDY    68  61  78 NE8       29.75S
DULUTH         CLOUDY    69  61  75 N6        29.72S
RED WING       PTSUNNY   75  61  60 NW9       29.74S
REDWOOD FALLS  MOSUNNY   80  65  59 NW7       29.78S
MANKATO        MOSUNNY   73  63  68 N5        29.78F
WORTHINGTON    MOSUNNY   81  19  10 NW7       29.84S
FAIRMONT       PTSUNNY   79  48  34 NW10      29.80F
$$

...SOUTHWEST WISCONSIN...


CITY           SKY/WX    TMP DP  RH WIND       PRES   REMARKS
LA CROSSE      MOSUNNY   78  64  61 NW9       29.72F
PRAIRIE DU CHI PTSUNNY   76  62  62 W7        29.75S
BOSCOBEL       PTSUNNY   81  64  56 VRB7      29.74S
LONE ROCK      MOSUNNY   82  65  56 W9        29.72S
PLATTEVILLE    CLOUDY    78  69  74 W13       29.76S
FORT MC COY    PTSUNNY   74  61  63 W10G16    29.73S
CAMP DOUGLAS   PTSUNNY   73  70  88 W10       29.72F
VIROQUA        CLOUDY    71  64  79 W6        29.76S
WIS DELLS      PTSUNNY   75  63  66 W7        29.73S
$$

...ELSEWHERE IN WISCONSIN...


CITY           SKY/WX    TMP DP  RH WIND       PRES   REMARKS
MILWAUKEE      MOSUNNY   79  68  69 W10       29.69F
MADISON        PTSUNNY   79  66  64 VRB7      29.71S
GREEN BAY      CLOUDY    70  64  81 W7        29.68S
EAU CLAIRE     CLOUDY    69  63  81 W8        29.73R
BLACK RVR FLS  CLOUDY    71  61  69 NW9       29.73S
MEDFORD        CLOUDY    66  62  84 W5        29.72F
WAUSAU         LGT RAIN  68  63  84 NW8       29.69S
WIS RAPIDS     CLOUDY    73  63  70 W8        29.72S
MARSHFIELD     CLOUDY    70  63  78 W9        29.71S
RICE LAKE      CLOUDY    67  62  82 NW6       29.76R
$$

...NORTHEAST IOWA...


CITY           SKY/WX    TMP DP  RH WIND       PRES   REMARKS
WATERLOO       MOSUNNY   79  64  60 NW12      29.77S
DUBUQUE        PTSUNNY   78  65  63 W9        29.77S
DECORAH        CLOUDY    73  64  73 VRB5      29.77R
MASON CITY     MOSUNNY   76  63  64 NW12G20   29.81S
CHARLES CITY   PTSUNNY   75  64  69 NW10      29.80S
OELWEIN        PTSUNNY   75  66  73 NW12      29.79S
$$

...ELSEWHERE IN IOWA...


CITY           SKY/WX    TMP DP  RH WIND       PRES   REMARKS
DES MOINES     MOSUNNY   83  66  56 W8        29.80S
IOWA CITY      MOSUNNY   83  67  58 NW9       29.78F
FORT DODGE     SUNNY     79  64  61 NW7       29.82S
MARSHALLTOWN   SUNNY     80  66  62 NW10      29.79S
CEDAR RAPIDS   MOSUNNY   81  67  62 W8        29.77S
$$

...NORTHERN ILLINOIS...


CITY           SKY/WX    TMP DP  RH WIND       PRES   REMARKS
CHICAGO-OHARE  CLOUDY    78  69  73 W16       29.72F
DUPAGE         CLOUDY    78  70  76 W14G23    29.75R
CHICAGO-MIDWAY CLOUDY    82  71  69 SW16      29.72F
MOLINE         PTSUNNY   80  68  66 SW13      29.77S
ROCKFORD       PTSUNNY   82  67  60 W10G21    29.75S
STERLING       PTSUNNY   81  70  69 W17G25    29.77F
PEORIA         LGT RAIN  71  67  87 CALM      29.80F
$$

NOTE: "FAIR" INDICATES FEW OR NO CLOUDS BELOW 12,000 FEET WITH NO
SIGNIFICANT WEATHER AND/OR OBSTRUCTIONS TO VISIBILITY. WIND
SPEEDS ARE IN MILES-PER-HOUR.



USA.gov is the U.S. government's official web portal to all federal, state and local government web resources and services.